GFSCGP_prec_cloud_189.txt.gz
Cloud_Cover
0 0 0 0 0 0 0 0 0 0 4 0 0 0 0 0 0 2 8 7 6 5 0 0 0 0 5 1 0 0 0 0 0 0 0 0 0 0 0 0 0 0 0 0
0 0 0 0 0 0 0 0 0 3 5 3 0 0 0 0 0 0 0 0 0 0 0 0 0 0 0 5 3 0 0 0 0 0 0 0 0 0 0 0 0 0 0 0
0 0 0 0 0 0 0 1 1 0 4 50 0 0 0 0 0 0 0 0 0 0 0 0 0 0 0 2 0 0 0 0 0 0 0 0 0 0 0 0 0 0 0 0
0 0 0 0 0 0 0 43 5 4 0 5 0 0 0 0 0 0 0 0 0 0 0 0 0 0 0 0 0 0 0 0 0 0 0 0 0 0 0 0 0 0 0 0
0 0 0 0 0 0 90 18 18 5 3 5 2 0 0 0 0 0 0 0 0 0 0 0 0 0 0 0 0 0 0 0 0 0 0 0 0 0 0 0 0 0 0 0
0 0 0 0 3 1 5 73 87 6 3 3 0 0 0 0 0 0 0 0 0 0 0 0 0 0 0 0 0 0 0 0 0 0 0 0 0 0 0 0 0 0 0 0
0 0 0 0 0 0 0 85 99 68 4 2 0 0 0 0 0 0 0 0 0 0 0 0 0 0 0 0 0 0 0 0 0 0 0 0 0 0 0 0 0 0 0 2
0 0 0 0 0 0 0 5 8 6 4 0 0 0 0 0 0 0 0 0 0 0 0 0 0 0 0 0 0 0 0 0 0 0 0 0 0 0 0 0 0 0 0 0
0 0 0 0 0 0 0 4 77 84 2 0 0 0 0 0 0 0 0 0 0 0 0 0 0 0 0 0 0 0 0 0 0 0 0 0 0 0 0 0 0 0 0 0
0 0 0 0 0 0 0 91 55 6 1 2 0 0 3 0 0 0 0 0 0 0 0 0 0 0 0 0 0 0 0 0 0 0 0 0 0 0 0 0 0 0 0 0
0 0 0 0 0 0 0 4 3 2 0 0 0 0 4 0 0 0 0 0 0 0 0 0 0 0 0 0 0 0 0 0 0 0 0 0 0 0 0 0 0 0 0 44
0 0 0 0 0 0 0 0 6 0 0 0 0 1 3 0 0 0 0 0 0 0 0 0 0 0 0 0 0 0 0 0 0 0 0 0 0 0 0 0 0 0 10 88
0 0 0 0 0 0 0 0 5 0 0 0 2 4 5 0 0 0 0 0 0 0 0 0 0 0 0 0 5 5 0 0 0 0 0 0 0 0 0 0 1 5 90 38
0 0 0 0 0 0 0 0 1 0 0 0 34 12 5 5 5 6 0 0 0 0 0 0 0 0 0 0 5 4 0 0 0 0 0 0 0 3 5 5 57 57 63 13
0 0 0 0 0 0 0 0 0 0 1 0 5 5 1 5 5 85 5 1 0 0 0 0 0 0 0 0 0 0 0 0 0 0 0 0 0 4 5 0 28 85 46 4
0 0 0 0 0 0 0 0 3 5 3 2 0 5 0 5 2 5 100 60 0 0 0 0 0 0 0 0 0 0 0 0 0 0 0 4 4 5 2 11 88 56 37 23
0 0 0 0 0 0 0 0 0 0 0 3 0 45 5 5 3 5 5 37 5 5 0 0 0 0 0 0 0 0 0 0 0 4 12 4 22 60 12 40 56 51 31 70
0 0 0 0 0 0 0 0 0 0 0 0 1 4 5 5 0 4 4 3 5 4 1 0 0 0 0 0 0 0 0 0 0 0 0 0 0 0 26 59 55 67 44 74
0 0 0 0 0 0 0 0 0 0 0 0 0 4 0 0 0 0 0 0 0 3 0 1 2 0 0 0 0 0 0 0 0 0 0 1 5 0 37 53 72 65 67 97
0 0 0 0 0 0 0 0 0 0 0 0 0 2 0 0 0 0 0 0 4 50 41 2 0 0 0 4 0 0 0 0 0 0 0 0 0 4 32 61 79 60 78 100
0 0 0 0 0 0 0 0 0 0 0 0 0 1 0 0 0 1 0 5 56 96 95 0 5 5 5 3 0 0 0 0 0 0 0 0 9 22 42 68 76 72 100 100
0 0 0 0 0 0 0 0 0 0 0 0 0 2 0 0 0 0 0 5 66 61 93 5 5 60 5 4 0 0 0 0 0 0 0 19 38 7 69 68 85 62 57 71
0 0 0 0 0 0 0 0 0 0 0 0 0 0 0 0 0 0 0 1 5 17 66 5 5 5 5 0 0 0 0 0 0 0 18 38 59 56 71 56 73 47 73 94
0 0 0 0 0 0 0 0 0 0 0 0 0 0 0 0 0 0 0 0 5 5 60 66 5 2 2 0 0 0 1 0 0 20 75 99 66 93 95 72 36 6 34 85
0 3 25 6 0 0 0 0 0 0 0 0 0 0 0 0 0 0 0 0 0 4 0 2 2 3 5 0 0 0 28 0 9 33 48 64 66 61 99 90 76 18 61 100
72 6 4 23 19 0 0 0 0 0 0 0 0 0 0 0 0 0 0 0 0 0 0 0 0 5 5 4 15 56 34 5 5 7 25 27 52 79 87 68 74 100 100 100

GFSCGP_prec_cloud_192.txt.gz
Cloud_Cover
0 0 0 0 0 68 59 99 92 5 0 0 0 0 0 0 0 0 0 35 31 33 67 59 28 0 0 0 0 0 0 0 0 0 0 0 0 0 0 0 0 0 0 0
0 0 0 0 0 0 4 5 8 5 0 0 3 0 0 0 0 0 0 0 4 41 100 73 39 15 0 0 0 0 0 0 0 0 0 0 0 0 0 0 0 0 0 0
0 0 0 0 0 0 0 2 5 5 3 0 4 0 0 0 0 0 0 0 0 0 19 37 23 11 9 0 0 0 0 0 0 0 0 0 0 0 0 0 0 0 0 0
0 0 0 0 0 0 0 0 5 5 1 76 5 27 0 0 0 0 0 0 0 0 1 11 3 1 5 0 0 0 0 0 0 0 0 0 0 0 0 0 0 0 0 0
0 0 0 0 0 0 0 1 5 5 5 16 4 1 5 0 0 0 0 0 0 0 0 0 0 0 0 0 0 0 0 0 0 0 0 0 0 0 0 0 0 0 0 0
0 0 0 0 0 0 0 0 0 5 5 30 5 3 5 2 0 0 0 0 0 0 0 0 0 0 0 0 0 0 0 0 0 0 0 0 0 0 0 0 0 0 0 0
0 0 0 0 0 0 0 2 36 80 77 24 10 1 33 1 0 0 0 0 0 0 0 0 0 0 0 0 0 0 0 0 0 0 0 0 0 0 0 0 0 0 0 0
0 0 0 0 0 0 0 4 65 100 100 100 5 0 0 0 0 0 0 0 0 0 0 0 0 0 0 0 0 0 0 0 0 0 0 0 0 0 0 0 0 0 0 0
0 0 0 0 0 0 0 0 16 100 100 100 19 0 0 0 0 0 0 0 0 0 0 0 0 0 0 0 0 0 0 0 0 0 0 0 0 0 0 0 0 0 0 0
0 0 0 0 0 0 0 0 8 66 100 100 100 5 5 0 0 0 0 0 0 0 0 0 0 0 0 0 0 0 0 0 0 0 0 0 0 0 0 0 0 0 0 0
0 0 0 0 0 0 0 0 2 33 97 100 100 7 4 0 0 0 0 0 0 0 0 0 0 0 0 0 0 0 0 0 0 0 0 0 0 0 0 0 0 0 0 11
0 0 0 0 0 0 0 0 2 20 93 98 100 100 0 0 0 0 0 0 0 0 0 0 0 0 0 0 0 0 0 0 0 0 0 0 0 0 0 0 0 0 1 14
0 0 0 0 0 0 0 0 3 5 36 3 11 86 3 4 0 0 0 0 0 0 0 0 0 0 0 0 0 0 0 0 0 0 0 0 0 0 0 0 2 5 5 89
0 0 0 0 0 0 0 0 2 5 4 19 0 22 5 71 0 0 0 5 1 0 0 0 0 0 0 0 0 0 0 0 0 0 0 0 0 0 0 0 1 0 18 49
0 0 0 0 0 0 0 0 0 3 1 9 4 0 61 100 2 0 0 5 1 0 0 0 0 0 0 0 0 0 0 0 0 0 0 0 0 0 0 1 1 3 50 56
0 0 0 0 0 0 0 0 0 1 0 5 4 21 0 34 5 0 0 0 0 0 0 0 0 0 0 0 0 0 0 0 0 0 0 0 5 5 5 4 0 55 84 84
0 0 0 0 0 0 0 0 0 0 0 0 0 3 100 94 10 2 0 0 0 0 0 0 0 0 0 0 0 0 0 0 0 0 0 2 4 1 30 23 17 98 88 70
0 0 0 0 0 0 0 0 0 0 3 0 1 20 96 31 84 5 0 3 3 4 0 0 0 0 0 0 0 0 0 0 0 0 0 0 0 0 0 3 62 100 75 62
0 0 0 0 0 0 0 0 0 0 95 1 4 5 38 52 46 5 5 0 0 0 0 0 0 0 0 0 0 0 0 0 0 0 0 0 1 0 0 1 70 86 100 55
0 0 0 0 0 0 0 0 0 0 4 5 26 5 21 5 4 5 5 1 5 0 5 5 5 0 0 0 0 0 0 0 0 0 0 0 0 0 0 22 97 95 63 39
0 0 0 0 0 0 0 0 0 0 72 5 100 66 4 2 85 87 62 4 4 1 5 7 6 5 4 0 0 0 0 0 0 0 0 3 0 0 4 60 100 90 58 42
0 0 0 0 0 0 0 0 0 0 3 0 82 100 92 53 100 86 49 17 5 5 5 8 59 93 5 0 0 0 0 4 0 0 0 17 2 0 48 100 100 90 60 59
0 0 0 0 0 0 0 0 0 0 4 4 3 0 14 49 50 63 5 6 5 5 8 55 5 61 40 5 5 3 5 1 2 5 50 77 6 7 89 100 100 95 94 62
1 0 0 0 0 0 0 0 0 0 0 0 0 0 0 0 4 5 4 0 0 5 5 7 96 98 70 19 36 66 5 0 1 5 5 3 22 61 100 100 96 42 75 91
53 0 2 0 2 0 0 0 0 0 0 0 0 0 0 0 0 0 5 0 0 1 3 0 89 78 98 78 12 7 11 4 0 0 0 5 5 97 100 51 56 33 13 5
87 26 0 84 0 0 0 0 0 0 0 0 0 0 0 0 0 0 0 0 0 0 0 0 4 55 22 5 5 1 0 5 0 0 0 5 6 68 97 52 75 75 37 22

GFSCGP_prec_cloud_195.txt.gz
Cloud_Cover
0 0 0 0 5 79 100 100 68 27 5 0 63 88 6 0 0 0 0 4 5 39 74 100 100 100 5 0 0 0 0 9 1 1 0 2 13 17 46 1 0 1 0 0
0 0 1 4 5 72 100 87 71 98 12 0 19 94 8 0 0 0 0 0 0 8 97 98 100 100 13 5 0 0 0 0 0 0 0 34 19 23 4 3 0 0 0 0
0 2 0 5 0 5 80 100 96 57 69 34 2 3 3 2 0 0 0 0 0 0 28 92 100 100 20 14 0 0 0 0 0 0 0 0 0 0 0 0 0 4 0 0
0 0 0 4 0 5 41 13 16 36 92 100 40 82 100 5 0 0 0 0 0 0 1 34 87 100 14 7 0 0 0 0 0 0 12 0 0 0 0 0 2 0 0 0
0 0 0 0 0 1 5 10 99 6 100 100 25 74 76 9 0 0 0 0 0 0 0 2 23 20 8 19 9 0 0 0 0 0 0 0 0 0 0 0 0 0 0 0
0 0 0 0 0 0 2 19 99 78 100 100 96 96 100 8 0 0 0 0 0 0 0 0 0 0 5 5 10 0 0 0 0 0 0 0 0 0 0 0 0 0 2 6
0 0 0 0 0 0 2 64 100 100 99 77 98 92 100 84 76 2 0 0 0 0 0 0 0 0 0 0 2 0 0 0 0 0 0 0 0 0 0 0 0 0 0 0
0 0 0 0 0 0 0 79 100 99 100 100 20 43 98 100 73 0 1 0 0 0 0 0 0 0 0 0 0 0 0 0 0 0 0 0 0 0 0 0 0 0 0 0
0 0 0 0 0 0 0 5 68 90 54 100 90 78 4 15 0 0 0 0 0 0 0 0 0 0 0 0 0 0 0 0 0 0 0 0 0 0 0 0 0 0 0 0
0 0 0 0 0 0 0 16 4 8 96 9 97 72 1 2 5 4 0 0 0 0 0 0 0 0 0 0 0 0 0 0 0 0 0 0 0 0 0 0 0 0 0 0
0 0 0 0 0 0 0 4 5 69 90 99 100 100 100 50 4 0 0 0 0 0 0 0 0 0 0 0 0 0 0 0 0 0 0 0 0 0 0 0 0 0 1 2
0 0 0 0 0 0 0 0 4 28 6 100 80 46 100 1 0 0 0 0 0 0 0 0 0 0 0 0 0 0 0 0 0 0 0 0 0 0 0 0 0 0 1 7
0 0 0 0 0 0 0 0 1 5 47 79 100 38 100 33 0 0 0 0 0 0 0 0 0 0 0 0 0 0 0 0 0 0 0 0 0 0 0 0 0 2 0 2
0 0 0 0 0 0 0 0 0 4 27 57 100 60 100 98 0 0 0 0 0 0 0 0 0 0 0 0 0 0 0 0 0 0 0 0 0 0 0 0 0 0 0 7
0 0 0 0 0 0 0 0 0 0 30 51 10 98 100 90 0 0 0 0 0 0 0 0 0 0 0 0 0 0 0 0 0 0 0 0 0 0 0 0 1 0 6 14
0 0 0 0 0 0 0 0 0 0 60 38 69 84 100 100 0 0 0 0 0 0 0 0 0 0 0 0 0 0 0 0 0 0 0 0 0 0 0 0 6 92 62 100
0 0 0 0 0 0 0 0 0 0 98 91 42 37 6 85 86 0 0 0 0 0 0 0 0 0 0 0 0 0 0 0 0 0 0 0 0 5 4 25 5 42 80 95
0 0 0 0 0 0 0 0 0 0 63 100 68 100 99 66 56 3 4 0 0 0 0 0 0 0 0 0 0 0 0 0 0 0 0 0 0 0 2 2 36 50 32 34
0 0 0 0 0 0 0 0 0 0 0 5 12 1 100 100 100 42 79 3 0 4 0 0 0 0 0 0 0 0 0 0 0 0 0 0 0 0 0 0 0 29 69 100
0 0 0 0 0 0 0 0 0 0 0 0 4 2 0 100 100 100 35 45 0 0 0 0 0 0 0 0 0 0 0 0 0 0 0 0 0 0 0 0 0 33 100 88
0 0 0 0 0 0 0 0 0 0 0 3 4 1 0 8 100 100 100 72 10 42 3 0 0 0 2 0 0 0 0 0 0 0 0 0 0 1 2 3 17 60 96 85
0 0 0 0 0 0 1 1 4 0 0 0 12 78 5 8 69 11 13 5 81 97 60 0 0 0 5 1 0 0 0 0 0 0 0 0 0 12 11 4 85 68 99 76
75 0 0 0 0 0 0 0 0 0 0 0 20 10 0 5 3 5 7 62 5 4 4 5 2 0 5 5 5 0 1 5 5 0 0 0 5 76 19 34 75 100 100 59
99 92 2 97 0 0 0 0 0 0 0 0 5 100 100 48 5 5 4 4 5 5 24 5 5 5 5 5 5 5 0 5 33 5 5 0 4 86 12 88 82 75 95 24
98 100 17 100 20 0 0 0 0 0 0 0 0 1 15 80 100 64 5 4 0 0 4 5 5 5 5 5 96 18 5 5 44 5 30 56 4 1 94 96 66 55 100 20
100 80 100 100 49 54 0 0 0 0 0 0 0 0 5 5 100 84 100 3 5 5 5 0 5 5 5 3 58 98 5 5 5 7 91 23 40 65 100 88 88 97 80 95

GFSCGP_prec_cloud_201.txt.gz
Cloud_Cover
0 0 0 0 19 25 10 10 76 90 88 4 13 19 0 33 3 2 5 7 4 0 0 0 0 0 0 0 0 0 0 0 0 0 0 0 0 3 98 0 0 0 0 0
0 0 0 0 2 4 8 5 42 100 97 8 100 76 5 1 4 0 28 0 0 0 0 0 2 1 0 0 0 0 0 0 0 0 0 0 0 30 64 0 0 0 0 0
0 2 0 0 4 4 0 5 50 100 92 100 80 88 5 2 2 0 0 0 0 0 0 2 85 54 1 0 0 0 0 0 0 0 0 0 0 83 0 0 0 0 0 0
0 0 0 0 1 4 0 2 100 100 90 100 99 97 97 0 3 0 0 0 0 0 0 0 0 27 86 0 0 0 0 0 0 0 0 0 0 0 0 0 0 0 0 0
0 0 0 0 0 5 8 62 57 100 96 34 87 68 0 3 20 0 0 0 0 0 0 0 0 0 0 0 0 0 0 0 0 0 0 0 0 0 0 0 0 0 0 0
0 0 0 0 0 3 4 22 67 100 100 100 24 15 56 5 69 3 0 2 0 0 0 0 0 0 0 0 0 0 0 0 0 0 0 0 0 0 0 0 0 0 0 0
0 0 0 0 0 0 0 78 100 21 97 52 2 0 11 99 97 74 100 70 0 0 0 0 0 0 0 0 0 0 0 0 0 0 0 0 0 0 0 0 0 0 0 0
0 0 0 0 0 0 0 0 14 5 4 0 72 30 100 17 100 100 100 100 45 0 0 0 0 0 0 0 0 0 0 0 0 0 0 0 0 0 0 0 0 0 0 0
0 0 0 0 0 0 0 0 0 0 0 29 100 20 22 15 85 100 100 100 100 5 0 0 0 0 0 0 0 0 0 0 0 0 0 0 0 0 0 0 0 0 0 0
0 0 0 0 0 0 0 0 0 0 0 5 85 100 65 88 98 100 100 99 77 0 0 0 0 0 0 0 0 0 0 0 0 0 0 0 0 0 0 0 0 0 0 0
0 0 0 0 0 0 0 0 0 0 0 3 30 3 99 97 100 98 72 41 100 24 0 0 0 0 0 0 0 0 0 0 0 0 0 0 0 0 0 0 0 0 0 0
0 0 0 0 0 0 5 0 0 0 0 0 4 5 8 28 92 100 100 99 78 8 0 0 0 0 0 0 0 0 0 0 0 0 0 0 0 0 0 0 0 0 0 0
0 0 0 0 0 0 0 0 0 0 0 0 4 1 63 83 92 100 83 5 100 16 0 0 0 0 0 0 0 0 0 0 0 0 0 0 0 0 0 0 0 0 0 1
0 0 0 0 0 0 0 0 0 0 0 0 0 0 86 91 100 97 35 24 1 0 0 0 0 0 0 0 0 0 0 0 0 0 0 0 0 0 0 0 0 0 0 0
0 0 0 0 0 0 0 0 0 0 0 0 0 11 100 68 100 99 99 100 69 0 0 0 0 0 0 0 0 0 0 0 0 0 0 0 0 0 0 0 0 0 0 35
0 0 0 0 0 0 0 0 0 0 0 0 0 22 41 8 45 100 55 100 100 0 0 0 0 0 0 0 0 0 0 0 0 0 0 0 0 0 0 0 0 0 5 18
0 0 0 0 0 0 0 0 0 0 0 0 0 10 28 11 98 100 100 100 100 2 0 0 0 0 0 0 0 0 0 0 0 0 0 0 0 0 0 0 0 1 5 1
0 0 0 0 0 0 0 0 0 0 0 0 0 13 100 100 65 96 100 100 100 14 0 0 0 0 0 0 0 0 0 0 0 0 0 0 0 0 0 0 0 0 2 0
1 0 0 0 0 0 0 0 0 0 1 1 0 0 31 100 100 98 100 100 100 15 0 0 0 0 0 0 0 0 0 0 0 0 0 0 0 0 0 0 0 0 0 0
2 3 0 0 0 0 10 2 5 12 4 0 0 0 0 4 42 72 100 100 100 100 0 0 0 0 0 0 0 0 0 0 0 0 0 0 0 0 0 0 0 0 0 0
0 3 0 0 0 0 11 4 5 1 0 0 0 0 0 14 100 100 100 87 23 65 0 0 0 0 0 0 0 0 0 0 0 0 0 0 0 0 0 0 0 0 0 6
0 0 0 0 0 0 3 12 4 16 0 0 0 0 0 19 100 18 100 100 100 6 0 4 0 0 0 0 0 0 0 0 0 0 0 0 0 0 0 0 0 1 0 17
0 0 0 0 0 2 0 11 0 0 0 0 0 0 0 0 49 60 100 98 99 86 76 4 2 3 0 0 0 0 0 0 0 0 0 0 0 0 0 0 0 0 9 47
0 0 0 0 53 63 5 2 5 23 0 0 0 0 0 0 79 100 100 94 74 100 100 61 3 4 0 0 0 0 0 0 0 0 0 0 0 0 0 0 5 5 46 63
97 40 13 3 5 43 0 0 0 2 0 0 0 0 0 0 0 15 100 100 100 100 100 93 90 4 0 0 0 0 0 0 0 3 2 0 0 0 0 4 5 7 43 18
100 100 100 67 1 8 3 25 5 2 6 0 0 0 0 0 0 5 8 98 100 100 99 88 79 4 5 0 94 25 1 2 3 18 98 100 83 11 5 5 61 67 92 79

GFSCGP_prec_cloud_204.txt.gz
Cloud_Cover
0 0 0 0 10 53 19 48 82 70 37 8 15 4 5 0 2 5 2 0 1 4 0 0 0 0 0 0 0 0 0 0 0 0 0 0 0 0 0 0 0 0 0 0
0 0 0 0 22 35 5 28 64 87 21 77 20 64 4 15 0 21 3 0 1 0 0 0 0 0 0 0 0 0 0 0 0 0 0 0 0 0 0 0 0 0 0 0
0 1 0 0 0 100 12 16 99 92 100 100 100 24 49 91 5 5 1 0 0 1 0 0 0 0 0 0 0 0 0 0 0 0 0 0 0 0 0 0 0 0 0 0
0 1 0 0 0 2 6 0 90 52 100 92 100 99 14 72 99 83 28 0 0 0 0 0 0 0 0 0 0 0 0 0 0 0 0 0 0 0 0 0 0 0 0 0
0 0 0 0 0 0 0 5 56 100 100 83 100 75 100 98 66 99 4 0 0 0 0 0 0 0 0 0 0 0 0 0 0 0 0 0 0 0 0 0 0 0 0 0
0 0 0 0 0 0 0 5 4 86 54 66 100 95 97 5 4 20 5 0 0 0 0 0 0 0 0 0 0 0 0 0 0 0 0 0 0 0 0 0 0 0 0 0
0 0 0 0 0 0 0 5 0 4 8 100 100 89 8 0 0 3 4 5 0 0 0 0 0 0 0 0 0 0 0 0 0 0 0 0 0 0 0 0 0 0 0 0
0 0 0 0 0 0 0 0 0 0 33 100 12 4 5 12 0 5 6 72 52 0 0 0 0 0 0 0 0 0 0 0 0 0 0 0 0 0 0 0 0 0 0 0
0 0 0 0 0 0 0 0 0 22 43 64 8 5 5 0 0 0 94 40 84 0 0 0 0 0 0 0 0 0 0 0 0 0 0 0 0 0 0 0 0 0 0 0
0 0 0 0 0 0 0 0 0 43 5 5 18 7 22 4 2 0 5 50 76 100 39 0 0 0 0 0 0 0 0 0 0 0 0 0 0 0 0 0 0 0 0 0
0 0 0 0 0 0 0 0 0 1 5 0 5 1 2 5 5 2 39 80 100 100 100 92 0 0 0 0 0 0 0 0 0 0 0 0 0 0 0 0 0 0 0 0
0 0 0 0 0 0 0 0 0 0 0 3 0 0 5 10 46 5 90 58 94 100 98 2 0 0 0 0 0 0 0 0 0 0 0 0 0 0 0 0 0 0 0 0
0 0 0 0 0 0 0 0 0 0 0 0 0 0 0 5 0 5 24 55 100 31 34 17 79 13 0 0 0 0 0 0 0 0 0 0 0 0 0 0 0 0 0 0
0 0 0 0 0 0 0 0 0 0 0 0 0 0 0 0 2 4 90 66 99 1 63 5 15 0 0 0 0 0 0 0 0 0 0 0 0 0 0 0 0 0 0 0
0 0 0 0 0 0 0 0 0 0 0 0 0 0 0 0 6 32 91 74 91 11 84 98 5 0 0 0 0 0 0 0 0 0 0 0 0 0 0 0 0 0 0 4
0 0 0 0 0 0 0 0 0 0 0 0 0 0 0 4 5 87 100 100 96 65 84 77 4 0 0 0 0 0 0 0 0 0 0 0 0 0 0 0 0 0 0 3
0 0 0 0 0 0 0 0 0 0 0 0 0 0 0 0 19 63 16 51 87 79 89 0 0 0 0 0 0 0 0 0 0 0 0 0 0 0 0 0 0 0 0 4
1 0 0 0 0 0 0 0 0 0 0 0 0 0 0 0 100 8 100 99 93 100 100 61 27 6 0 0 0 0 0 0 0 0 0 0 0 0 0 0 0 0 0 0
5 3 0 0 0 0 0 0 4 0 0 0 0 0 0 1 5 5 81 93 100 100 100 100 83 16 0 0 0 0 0 0 0 0 0 0 0 0 0 0 0 0 0 0
94 17 4 0 0 0 0 0 2 0 0 0 0 0 0 1 10 5 99 100 100 99 100 100 100 5 0 0 0 0 0 0 0 0 0 0 0 0 0 0 0 0 0 0
100 100 11 0 0 0 0 4 5 7 0 0 0 0 0 0 48 5 94 100 100 100 100 100 100 6 0 0 0 0 0 0 0 0 0 0 0 0 0 0 0 0 0 0
55 98 57 20 0 0 2 51 95 8 9 0 0 0 0 0 2 3 14 100 100 56 100 98 100 99 0 0 0 0 0 0 0 0 0 0 0 0 0 0 0 0 0 0
4 44 96 90 2 4 93 100 95 22 91 81 4 0 0 4 11 3 100 95 99 100 89 99 100 100 1 0 0 0 0 0 0 0 0 0 0 0 0 0 0 0 0 0
3 8 24 81 0 2 15 100 100 22 100 69 5 0 0 0 2 47 97 87 100 81 100 77 71 5 2 30 0 0 0 0 0 0 0 0 0 0 0 0 0 0 4 11
79 99 96 28 4 13 33 52 5 5 100 100 38 0 0 0 3 37 41 98 100 100 90 100 98 61 7 19 96 8 0 0 0 0 0 0 0 0 0 0 0 0 5 85
100 100 100 100 100 100 71 80 100 66 98 100 100 6 0 37 53 58 34 6 99 100 100 100 100 100 69 0 52 46 3 0 0 0 0 2 0 0 0 1 4 83 80 98

GFSCGP_prec_cloud_210.txt.gz
Cloud_Cover
5 2 0 20 100 100 5 5 0 5 98 36 100 100 100 70 4 58 61 0 0 0 0 3 5 2 5 5 1 0 2 3 5 0 0 0 0 0 0 0 0 0 0 0
5 0 0 0 10 8 5 10 48 7 5 5 19 20 77 5 0 0 0 0 0 0 0 0 0 4 99 5 5 0 0 0 0 0 0 0 0 0 0 0 0 0 0 0
0 0 0 0 0 0 5 5 83 51 6 5 3 33 2 0 3 0 0 3 0 0 0 0 4 5 1 0 0 0 0 0 0 0 0 0 0 0 0 0 0 0 0 0
0 0 5 5 0 0 0 5 97 46 35 25 4 99 7 0 0 0 5 5 5 0 0 0 0 0 0 0 0 0 0 0 0 0 0 0 0 0 0 0 0 0 0 0
0 0 0 0 0 0 0 5 78 100 44 5 2 2 95 5 5 5 96 9 5 5 0 0 0 5 0 0 0 0 0 0 0 0 0 0 0 0 0 0 0 0 0 0
0 0 0 0 16 11 4 0 5 5 43 0 69 0 5 22 5 2 5 55 32 5 0 0 0 3 0 0 0 0 0 0 0 0 0 0 0 0 0 0 0 0 0 0
0 0 0 0 0 4 5 0 1 4 5 24 14 5 37 93 17 24 31 5 4 4 0 0 0 0 0 0 0 0 0 0 4 0 0 0 0 0 0 0 0 0 0 0
0 0 0 0 0 0 0 0 0 0 0 5 1 23 84 98 60 90 100 5 5 0 0 0 0 0 0 0 0 0 0 0 0 0 0 0 0 0 0 0 0 0 0 0
0 0 0 0 0 0 0 0 0 0 0 0 60 100 98 100 100 100 91 1 0 4 0 0 0 0 0 0 0 0 0 0 0 0 0 0 0 0 0 0 0 0 0 0
0 0 0 0 0 0 0 0 0 0 0 1 87 61 47 100 100 97 62 5 0 52 4 0 0 0 0 0 0 0 0 0 0 0 0 0 0 0 0 0 0 0 0 0
0 0 0 0 0 0 0 0 0 0 0 0 22 85 90 100 100 96 55 90 0 73 5 1 0 0 0 0 0 0 0 0 0 0 0 0 0 0 0 0 0 0 0 1
0 0 0 0 0 0 0 0 0 0 0 0 0 99 89 100 18 27 5 5 5 6 100 4 0 0 0 0 0 0 0 0 0 0 0 0 0 0 0 0 0 0 0 4
0 0 0 0 0 0 0 0 0 0 0 0 0 0 61 93 100 10 7 5 24 5 29 87 0 0 0 0 0 0 0 0 0 0 0 0 0 0 0 0 0 0 0 1
0 0 0 0 0 0 0 0 0 0 0 0 0 0 0 54 46 100 47 19 80 55 7 99 5 0 5 0 0 0 0 0 0 0 0 0 0 0 0 0 0 0 0 0
0 0 0 0 0 0 0 0 0 0 0 0 0 0 0 52 65 97 75 5 3 37 32 100 100 30 5 8 22 5 0 0 0 0 0 0 0 0 0 0 0 0 0 0
0 0 0 0 0 0 0 0 0 0 0 0 0 0 0 0 2 40 62 5 67 0 5 100 100 100 99 84 78 1 0 0 0 0 0 0 0 0 0 0 0 0 0 0
0 0 0 0 0 0 0 0 0 0 0 0 0 0 0 0 0 7 96 5 0 0 10 48 100 99 88 92 36 3 0 0 0 0 0 0 0 0 0 0 0 0 0 0
0 0 0 0 0 0 0 0 0 0 0 2 35 95 86 32 0 0 5 5 1 0 85 7 81 100 54 10 5 7 4 0 0 0 0 0 0 0 0 0 0 0 0 0
0 0 0 0 0 0 0 0 0 0 0 2 94 100 100 54 0 31 5 5 2 0 3 5 3 20 16 50 54 8 89 5 0 0 0 0 0 0 0 0 0 0 0 0
0 0 0 0 0 0 0 0 0 0 0 0 71 82 93 74 1 0 3 4 2 0 69 5 0 0 83 100 100 100 61 100 79 74 0 0 0 0 0 0 0 0 0 0
0 0 0 1 1 0 33 14 0 3 44 99 96 100 100 100 100 100 100 16 0 0 21 5 5 2 2 16 79 69 72 100 46 0 0 0 0 0 0 0 0 0 0 0
0 0 0 3 5 0 32 52 66 100 100 99 100 100 100 100 100 100 100 100 97 59 0 80 5 5 5 8 27 60 20 7 3 0 0 0 0 0 0 0 0 0 0 0
15 0 3 0 5 24 100 100 100 100 100 100 100 100 100 100 100 100 100 100 100 100 92 6 100 91 83 100 100 100 100 100 22 0 0 0 0 0 0 0 0 0 0 0
0 3 58 9 99 31 96 100 100 100 100 100 100 100 100 100 100 100 100 100 100 100 100 28 5 99 100 100 100 100 100 38 4 0 0 0 0 0 0 0 0 4 0 0
0 6 54 62 100 100 73 95 100 100 100 100 28 93 100 100 100 100 100 100 100 100 100 100 100 58 81 86 100 50 74 21 5 2 0 0 0 0 3 5 5 3 0 0
4 5 96 96 100 100 77 95 100 100 92 18 30 47 100 100 100 100 100 100 100 100 100 100 100 100 100 100 100 96 8 15 3 17 57 5 0 0 1 4 5 82 84 61